This demonstration page uses our WeatherBlox Daily Observations layout. Learn more.

Left ArrowRight Arrow

Hourly Observations for August 16, 2017

Temp ( °F °C ) Dew Point ( °F °C ) Humidity (%) Winds ( mph kmh ) Pressure ( in mb ) Visibility ( mi km ) Precip ( " mm )
12:03 am 00:03 Mostly Cloudy with Nearby Thunderstorms 77 25 75 23.9 94 94 SSE 10 17 29.83 1010 10 16 0.00 0.03
12:09 am 00:09 Cloudy with Thunderstorms 77 25 75 23.9 94 94 S 8 13 29.85 1011 10 16 0.00 0.03
12:29 am 00:29 Cloudy with Nearby Thunderstorms 76 24.4 75 23.9 97 97 S 9 15 29.83 1010 10 16 0.01 0.25
12:52 am 00:52 Mostly Cloudy with Nearby Thunderstorms 76 24.4 76 24.4 100 100 S 7 11 29.87 1011 10 16 0.02 0.51
12:58 am 00:58 Mostly Cloudy with Nearby Thunderstorms 78 25.6 76 24.4 93 93 SSW 6 9 29.85 1011 10 16 0.00 0.03
1:05 am 01:05 Cloudy with Light Rain 76 24.4 76 24.4 100 100 SW 8 13 29.85 1011 9 14 0.00 0.03
1:09 am 01:09 Cloudy with Rain 76 24.4 76 24.4 100 100 W 8 13 29.85 1011 6 10 0.01 0.25
1:52 am 01:52 Cloudy 75 23.9 75 23.9 100 100 E 9 15 29.88 1012 10 16 0.05 1.27
2:52 am 02:52 Cloudy with Light Rain 71 21.7 71 21.7 100 100 E 13 20 29.88 1012 7 11 0.01 0.25
3:52 am 03:52 Mostly Cloudy 71 21.7 71 21.7 100 100 ESE 5 7 29.86 1011 10 16 0.04 1.02
4:52 am 04:52 Partly Cloudy 71 21.7 71 21.7 100 100 SE 9 15 29.85 1011 10 16 0.00 0.00
5:52 am 05:52 Cloudy 72 22.2 72 22.2 100 100 SSE 10 17 29.86 1011 10 16 0.00 0.00
6:52 am 06:52 Cloudy 73 22.8 72 22.2 96 96 SSE 12 19 29.86 1011 10 16 0.00 0.00
7:52 am 07:52 Cloudy 73 22.8 72 22.2 96 96 SSE 13 20 29.89 1012 10 16 0.00 0.00
8:52 am 08:52 Mostly Cloudy 76 24.4 74 23.3 94 94 SSE 14 22 29.89 1012 10 16 0.00 0.00
9:52 am 09:52 Sunny 79 26.1 75 23.9 88 88 S 17 28 29.88 1012 10 16 0.00 0.00
10:52 am 10:52 Sunny 83 28.3 76 24.4 79 79 S 18 30 29.88 1012 10 16 0.00 0.00
11:52 am 11:52 Mostly Cloudy 83 28.3 75 23.9 77 77 SSW 17 28 29.88 1012 10 16 0.00 0.00
12:45 pm 12:45 Mostly Sunny 87 30.6 76 24.4 70 70 S 20 31 29.83 1010 10 16 0.00 0.00
12:52 pm 12:52 Mostly Sunny 85 29.4 75 23.9 72 72 SSW 20 31 29.85 1011 10 16 0.00 0.00
1:36 pm 13:36 Partly Cloudy 86 30 75 23.9 70 70 SSW 21 33 29.83 1010 10 16 0.00 0.00
1:52 pm 13:52 Mostly Cloudy 84 28.9 74 23.3 72 72 SSW 18 30 29.87 1012 10 16 0.00 0.00
2:05 pm 14:05 Sunny 76 24.4 69 20.6 79 79 WNW 18 30 29.88 1012 10 16 0.00 0.00
2:16 pm 14:16 Cloudy with Light Rain 74 23.3 70 21.1 88 88 NW 12 19 29.88 1012 10 16 0.00 0.03
2:50 pm 14:50 Cloudy 75 24 72 22 89 89 NNW 9 15 29.88 1012 10 16 0.00 0.03
2:52 pm 14:52 Cloudy with Light Rain 75 23.9 72 22.2 90 90 NW 9 15 29.90 1013 10 16 0.00 0.03
3:13 pm 15:13 Cloudy with Light Rain 74 23.3 72 22.2 94 94 N 6 9 29.88 1012 9 14 0.00 0.03
3:28 pm 15:28 Cloudy with Nearby Thunderstorms 73 22.8 72 22.2 96 96 NNE 7 11 29.88 1012 4 6 0.02 0.51
3:46 pm 15:46 Cloudy with Light Rain 73 23 73 23 100 100 E 5 7 29.85 1011 6 10 0.03 0.76
3:52 pm 15:52 Mostly Cloudy with Light Rain 74 23.3 73 22.8 97 97 SE 6 9 29.89 1012 10 16 0.03 0.76
4:06 pm 16:06 Mostly Cloudy with Nearby Thunderstorms 74 23.3 73 22.8 97 97 SSE 6 9 29.88 1012 7 11 0.01 0.25
4:50 pm 16:50 Mostly Sunny 77 25 75 24 94 94 SSE 12 19 29.83 1010 10 16 0.03 0.76
4:52 pm 16:52 Mostly Sunny 77 25 76 24.4 96 96 SSE 10 17 29.85 1011 10 16 0.03 0.76
5:52 pm 17:52 Sunny 81 27.2 76 24.4 85 85 S 13 20 29.84 1010 10 16 0.00 0.00
6:52 pm 18:52 Sunny 81 27.2 74 23.3 79 79 S 14 22 29.84 1010 10 16 0.00 0.00
7:52 pm 19:52 Mostly Sunny 78 25.6 74 23.3 87 87 SSW 7 11 29.88 1012 10 16 0.00 0.00
8:52 pm 20:52 Cloudy 78 25.6 75 23.9 90 90 S 10 17 29.89 1012 10 16 0.00 0.00
9:52 pm 21:52 Cloudy with Light Rain 77 25 76 24.4 96 96 SW 6 9 29.88 1012 9 14 0.00 0.03
10:09 pm 22:09 Cloudy 72 22.2 67 19.4 84 84 NW 22 35 29.88 1012 10 16 0.00 0.03
10:24 pm 22:24 Cloudy with Heavy Rain 69 20.6 68 20 96 96 NW 16 26 29.94 1014 3 4 0.05 1.27
10:42 pm 22:42 Cloudy with Rain 68 20 68 20 100 100 WNW 8 13 29.94 1014 4 6 0.25 6.35
10:52 pm 22:52 Cloudy with Heavy Rain 68 20 68 20 100 100 WNW 10 17 29.93 1014 4 6 0.29 7.37
11:05 pm 23:05 Cloudy with Heavy Rain 68 20 68 20 100 100 SSW 8 13 29.97 1015 3 4 0.08 2.03
11:15 pm 23:15 Cloudy with Rain 68 20 68 20 100 100 SW 7 11 29.94 1014 4 6 0.15 3.81
11:52 pm 23:52 Mostly Cloudy with Light Rain 68 20 67 19.4 96 96 SW 10 17 29.92 1013 10 16 0.17 4.32

Powered by AerisWeather